TimePST,TemperatureF,Dew PointF,Humidity,Sea Level PressureIn,VisibilityMPH,Wind Direction,Wind SpeedMPH,Gust SpeedMPH,PrecipitationIn,Events,Conditions,WindDirDegrees,DateUTC
12:52 AM,43.0,39.0,86,30.25,10.0,North,3.5,-,N/A,,Clear,10,2013-01-30 08:52:00
1:52 AM,44.1,37.9,79,30.26,10.0,North,3.5,-,N/A,,Clear,350,2013-01-30 09:52:00
2:52 AM,46.0,36.0,68,30.28,10.0,Calm,Calm,-,N/A,,Clear,0,2013-01-30 10:52:00
3:52 AM,43.0,37.0,80,30.30,10.0,North,4.6,-,N/A,,Clear,350,2013-01-30 11:52:00
4:52 AM,43.0,37.0,80,30.30,10.0,NNW,6.9,-,N/A,,Clear,330,2013-01-30 12:52:00
5:52 AM,43.0,37.0,80,30.31,10.0,WSW,4.6,-,N/A,,Clear,250,2013-01-30 13:52:00
6:52 AM,42.1,37.0,82,30.33,10.0,Calm,Calm,-,N/A,,Clear,0,2013-01-30 14:52:00
7:52 AM,43.0,37.0,80,30.35,10.0,Calm,Calm,-,N/A,,Clear,0,2013-01-30 15:52:00
8:52 AM,46.0,37.0,71,30.37,10.0,Calm,Calm,-,N/A,,Clear,0,2013-01-30 16:52:00
9:52 AM,52.0,37.9,59,30.38,10.0,Calm,Calm,-,N/A,,Clear,0,2013-01-30 17:52:00
10:52 AM,55.9,37.0,49,30.37,10.0,Calm,Calm,-,N/A,,Clear,0,2013-01-30 18:52:00
11:52 AM,60.1,34.0,38,30.33,10.0,Calm,Calm,-,N/A,,Clear,0,2013-01-30 19:52:00
12:52 PM,62.1,32.0,32,30.29,10.0,East,3.5,-,N/A,,Clear,90,2013-01-30 20:52:00
1:52 PM,64.0,30.0,28,30.27,10.0,NNE,4.6,-,N/A,,Clear,20,2013-01-30 21:52:00
2:52 PM,66.0,32.0,28,30.26,10.0,NE,8.1,-,N/A,,Clear,50,2013-01-30 22:52:00
3:52 PM,64.0,33.1,31,30.24,10.0,Variable,3.5,-,N/A,,Clear,0,2013-01-30 23:52:00
4:52 PM,62.1,36.0,38,30.22,10.0,East,3.5,-,N/A,,Clear,90,2013-01-31 00:52:00
5:52 PM,57.9,37.0,46,30.23,10.0,ENE,3.5,-,N/A,,Clear,70,2013-01-31 01:52:00
6:52 PM,55.9,39.9,55,30.23,10.0,Calm,Calm,-,N/A,,Clear,0,2013-01-31 02:52:00
7:52 PM,55.0,39.0,55,30.23,10.0,Calm,Calm,-,N/A,,Clear,0,2013-01-31 03:52:00
8:52 PM,50.0,43.0,77,30.24,10.0,Calm,Calm,-,N/A,,Clear,0,2013-01-31 04:52:00
9:52 PM,50.0,43.0,77,30.24,10.0,NW,5.8,-,N/A,,Clear,310,2013-01-31 05:52:00
10:52 PM,48.0,42.1,80,30.25,10.0,NNE,4.6,-,N/A,,Clear,20,2013-01-31 06:52:00
11:52 PM,48.0,42.1,80,30.25,10.0,Calm,Calm,-,N/A,,Clear,0,2013-01-31 07:52:00